Tracking 25949 objects as of 9-Aug-2022
HD Live streaming from Space Station
objects crossing your sky now

STARLINK-4278

Track STARLINK-4278 now!
10-day predictions
STARLINK-4278 is classified as:


NORAD ID: 53182
Int'l Code: 2022-083BC
Perigee: 355.1 km
Apogee: 358.2 km
Inclination: 53.2 °
Period: 91.5 minutes
Semi major axis: 6727 km
RCS: Unknown
Launch date: July 17, 2022
Source: United States (US)
Launch site: AIR FORCE EASTERN TEST RANGE (AFETR)
aabbcc
Your satellite tracking list
Your tracking list is empty




NASA's NSSDC Master Catalog

Two Line Element Set (TLE):
1 53182U 22083BC  22220.91667824 -.00133872  00000-0 -96071-3 0  9997
2 53182  53.2185 296.3111 0002316  20.1299 254.3702 15.73291589  1300
Source of the keplerian elements: AFSPC